Theta_e
300 300 299 299 299 298 298 298 298 297 297 297 297 296 295 294 293 291 290 289 289 289 289 289 288 288 288 288 288 288 287 287 286 286 286 286 286 286 286 286 286 286 286 286 286 286 286 286 286 286 287 287 287 287 287 287 288 288 288 288 288 288 288 289 289 289 290 290 290 291 291 291 291 291 291 291 291 291 291 292 292 292 292 292 292 292
300 300 299 299 298 298 298 298 297 297 296 295 295 293 292 291 290 289 289 289 289 289 288 288 288 288 288 288 288 287 287 287 286 286 286 286 286 286 286 286 286 286 286 286 286 286 286 286 286 287 287 287 287 287 287 287 288 288 288 288 288 288 288 288 288 288 289 289 289 290 290 290 290 290 290 290 290 290 291 291 291 291 291 291 291 291
299 298 297 298 297 297 297 297 296 295 294 292 291 290 289 289 289 289 289 289 288 288 288 288 288 288 288 288 287 287 287 286 286 286 286 286 286 286 286 286 286 286 286 286 286 286 286 287 287 287 287 287 287 287 287 287 288 288 288 288 288 288 288 288 288 288 288 288 289 289 289 289 290 290 290 290 290 290 290 290 290 290 290 290 290 291
297 296 296 296 296 295 295 294 293 292 290 289 289 289 289 289 289 289 289 288 288 288 288 288 288 288 288 287 287 287 287 286 286 286 286 286 286 286 286 286 286 286 286 286 286 286 287 287 287 287 287 287 287 287 287 287 288 288 287 287 287 287 287 287 287 287 288 288 288 288 288 289 289 289 289 289 289 289 289 289 289 289 289 289 290 290
297 297 296 295 294 294 293 291 290 289 288 288 288 288 289 289 289 288 288 288 288 288 288 288 287 287 287 287 287 287 286 286 286 286 286 286 286 286 286 286 286 286 287 287 287 287 287 287 287 287 287 287 287 287 287 287 287 287 287 287 287 287 287 287 287 287 287 287 288 288 288 288 288 288 288 288 288 288 288 288 288 288 289 289 289 289
297 295 294 293 292 292 291 289 289 288 288 288 288 288 288 288 288 288 288 288 288 288 287 287 287 287 287 287 286 286 286 285 285 285 285 286 286 286 286 287 287 287 287 287 287 287 287 287 287 287 287 287 287 287 287 287 287 287 287 287 287 287 287 287 287 287 287 287 287 287 287 287 287 288 288 288 288 288 288 288 288 288 288 288 289 289
295 294 293 291 291 290 289 288 288 288 288 289 289 288 288 288 288 288 287 288 287 287 287 287 287 287 286 286 286 286 285 285 285 285 286 286 286 287 287 287 287 287 287 287 287 287 287 287 287 287 287 287 287 287 287 287 287 287 287 287 287 287 287 287 287 287 287 287 287 287 287 287 287 287 287 287 287 287 287 287 287 287 288 288 288 289
293 292 291 290 289 288 288 288 288 288 289 289 289 288 288 288 288 288 287 287 287 287 287 287 287 286 286 286 285 285 285 285 285 285 286 286 287 287 287 287 287 287 287 288 288 287 287 287 287 287 287 287 287 287 287 287 287 287 287 287 287 287 287 287 287 287 287 287 287 287 287 287 287 287 287 287 287 287 287 287 287 287 287 287 288 288
291 290 289 288 288 288 288 288 288 288 289 288 288 288 288 288 288 288 287 287 287 287 287 286 286 286 285 285 285 285 285 285 285 286 286 287 287 287 287 287 287 288 288 288 288 288 287 287 287 287 287 287 287 287 287 287 287 287 287 287 287 287 287 287 287 287 287 287 287 287 287 287 287 287 287 287 287 287 287 287 287 287 287 287 287 288
289 289 288 288 288 288 288 288 289 288 288 288 288 288 288 288 288 288 287 287 287 287 286 286 286 285 285 285 285 285 285 285 285 286 286 287 287 287 287 287 287 287 287 287 287 287 287 287 287 287 287 287 287 287 287 287 287 287 287 287 287 287 287 287 287 287 286 286 286 286 286 286 286 286 286 287 286 286 286 287 287 287 287 287 287 288
289 288 288 288 288 288 289 289 289 289 289 288 288 288 288 288 288 287 287 287 287 287 286 286 285 285 285 285 285 285 285 285 286 286 287 287 287 287 287 287 287 287 287 287 287 287 287 287 287 287 288 288 288 287 287 287 287 287 287 287 287 287 287 286 286 286 286 286 286 286 286 286 286 286 286 286 286 286 287 287 287 287 287 287 287 288
288 288 288 288 289 289 289 289 289 289 289 288 288 288 288 288 287 287 287 287 286 286 286 285 285 285 285 284 284 285 285 285 286 286 287 287 287 287 286 286 287 287 287 287 287 287 288 287 288 288 288 288 288 288 287 287 287 287 287 287 287 287 287 286 286 286 286 286 286 286 286 286 286 286 286 286 286 287 287 287 287 287 287 287 287 287
288 288 289 289 289 289 289 289 289 289 289 288 288 288 288 288 287 287 287 286 286 285 285 285 285 284 284 284 285 285 285 286 286 286 286 286 286 286 286 286 287 287 287 287 287 288 288 288 288 288 288 288 288 288 288 288 287 287 287 287 287 287 287 287 287 286 286 286 286 286 286 286 286 286 287 287 287 287 287 287 287 287 287 287 287 287
289 289 289 289 289 289 289 289 289 289 288 288 288 288 287 287 287 286 286 286 285 285 285 285 284 284 284 284 285 285 285 286 286 286 286 286 286 286 286 286 286 287 287 287 288 288 288 288 288 288 289 288 288 288 288 288 288 288 287 287 287 287 287 287 287 287 287 287 287 287 287 287 287 287 287 287 287 287 287 287 287 287 287 287 287 287
289 289 289 290 289 289 289 289 288 288 288 288 288 287 287 287 286 286 286 285 285 285 284 284 284 284 284 285 285 285 285 286 286 286 286 286 286 286 286 286 286 287 287 287 288 288 288 289 289 289 289 289 288 288 288 288 288 288 288 288 287 287 287 287 287 287 287 287 287 287 287 287 287 287 287 287 287 287 287 287 287 287 287 287 287 287
289 289 289 289 289 289 289 288 288 288 288 287 287 287 286 286 286 285 285 285 285 284 284 284 284 284 284 285 285 285 285 285 285 286 286 286 286 286 286 286 286 287 288 288 288 288 289 289 289 289 289 289 289 289 288 288 288 288 288 288 288 288 288 287 287 287 287 287 287 287 287 287 287 287 287 287 287 287 287 287 287 287 287 287 287 287
289 289 289 289 289 288 288 288 288 288 287 287 287 286 286 286 285 285 285 284 284 284 284 284 284 284 284 285 285 286 285 285 285 285 285 286 286 287 286 286 286 287 288 288 288 288 288 289 289 289 289 289 289 289 289 288 288 288 288 288 288 288 288 288 288 287 287 287 287 287 287 287 287 287 287 287 287 287 287 287 287 287 287 287 287 287
289 289 289 289 288 288 288 288 287 287 287 286 286 286 286 285 285 285 284 284 284 284 284 284 284 284 284 285 285 286 285 285 285 285 285 286 286 287 287 286 286 287 288 288 288 288 288 289 289 289 289 289 289 289 289 289 289 288 288 288 288 288 288 288 288 287 287 287 287 287 287 287 287 287 287 287 287 287 287 287 287 287 287 287 287 287
289 289 289 289 288 288 288 287 287 287 286 286 286 285 285 285 285 284 284 283 283 283 284 284 284 284 284 285 285 285 285 285 284 285 285 285 286 287 287 286 286 287 288 288 288 288 288 289 289 289 289 289 289 289 289 289 289 289 289 288 288 288 288 288 288 288 288 288 288 288 288 287 287 287 287 287 287 287 287 287 287 287 287 287 287 287
289 289 288 288 288 287 287 287 287 286 286 286 285 285 285 284 284 283 283 283 283 283 284 284 284 284 284 284 285 285 285 285 284 284 285 285 286 287 287 287 286 287 287 288 288 288 288 289 289 289 289 289 289 289 289 289 289 289 289 289 289 289 289 289 288 288 288 288 288 288 288 288 288 288 288 288 287 287 287 288 288 287 287 287 287 287
288 287 287 287 287 287 287 286 286 286 286 285 285 285 284 284 283 283 283 283 283 283 283 284 284 284 284 284 284 285 285 285 284 284 285 285 286 287 287 286 286 286 287 288 288 288 288 289 289 289 289 289 289 289 289 289 289 289 289 289 289 289 289 289 289 289 289 289 288 288 288 288 288 288 288 288 288 287 287 287 287 287 287 287 287 287
286 286 286 286 286 286 286 286 286 285 285 285 284 284 283 283 283 283 283 283 283 283 283 284 284 284 284 284 285 285 285 285 284 284 284 285 286 287 287 286 286 286 287 287 288 288 288 289 289 289 289 289 289 289 289 289 289 289 289 289 289 289 289 289 289 289 289 289 289 289 288 288 288 288 288 288 288 287 287 287 287 287 287 287 287 287
286 286 286 286 286 286 286 285 285 285 284 284 283 283 283 283 283 283 283 283 283 283 283 283 284 284 284 285 285 285 285 285 285 284 284 285 285 286 287 286 286 286 287 287 287 288 288 289 289 289 289 289 290 289 289 289 289 289 289 289 289 290 289 289 289 289 289 289 289 289 289 288 288 288 288 288 287 287 287 287 287 287 287 287 287 287
285 285 285 285 285 285 285 284 284 284 283 283 282 282 282 282 282 282 282 283 283 283 283 283 284 284 285 285 285 285 285 285 285 284 284 285 285 286 286 286 286 286 286 287 287 287 288 289 289 289 289 290 290 290 290 290 290 290 290 290 290 290 290 290 289 289 289 289 289 289 289 288 288 288 288 287 287 287 287 287 287 287 287 287 287 287
284 284 284 284 284 284 284 283 283 283 283 283 282 282 282 282 282 282 282 283 283 283 283 283 284 284 285 285 285 285 285 285 285 284 284 284 285 286 286 286 285 286 286 286 287 287 287 288 289 289 289 290 290 290 290 290 290 290 290 290 290 290 290 289 289 289 289 289 289 289 288 288 288 288 288 287 287 287 287 287 287 287 287 286 286 286
283 283 283 283 283 283 283 283 283 283 282 282 282 282 282 282 282 282 282 283 283 283 283 283 283 284 285 285 285 285 285 285 285 284 284 284 285 285 286 286 286 285 286 286 286 286 287 288 289 289 289 290 290 290 290 290 290 290 290 290 290 290 290 289 289 289 289 289 289 289 289 288 288 288 288 287 287 287 287 287 286 286 286 286 286 286
283 282 282 282 282 282 282 282 282 282 282 282 282 282 282 282 282 282 283 283 283 283 283 283 283 284 285 285 285 285 285 285 285 285 285 284 285 285 286 286 286 285 285 285 286 286 286 287 288 289 289 289 290 290 290 290 290 290 290 290 290 290 290 289 289 289 289 289 289 289 288 288 288 288 287 287 287 287 287 287 286 286 286 286 286 286
282 282 282 282 282 282 282 282 282 282 282 282 282 282 282 282 282 283 283 284 284 283 283 283 284 284 284 285 285 285 285 285 285 285 285 285 285 285 286 286 285 285 285 285 285 286 286 287 288 288 289 289 289 290 290 290 290 290 290 290 290 290 290 290 289 289 289 289 289 289 288 288 288 287 287 287 287 287 286 286 286 286 286 286 285 285
283 282 282 282 282 282 282 282 282 282 282 282 283 283 283 283 283 284 284 284 284 283 284 284 284 284 284 285 285 285 286 286 286 285 285 285 285 285 285 285 285 285 284 284 285 285 286 286 287 288 288 289 289 289 290 290 290 290 290 290 290 290 290 290 289 289 289 289 289 288 288 288 288 287 287 287 287 286 286 286 286 286 286 285 285 285
282 282 282 282 282 282 282 282 282 283 283 283 283 284 284 284 284 284 284 284 284 284 284 284 285 285 284 284 284 285 285 286 286 285 284 284 284 285 285 285 285 285 284 284 284 284 285 286 286 287 287 288 289 289 289 290 290 290 290 290 290 290 290 289 289 289 288 288 288 288 288 288 287 287 287 287 286 286 286 286 286 286 285 285 285 285
282 282 282 282 282 282 282 283 283 284 284 284 284 284 285 285 285 285 285 285 285 285 285 285 285 285 284 284 283 284 285 286 286 285 284 284 285 285 285 285 285 285 284 283 283 283 284 285 286 287 287 287 288 289 290 290 289 289 289 289 289 289 289 289 289 288 288 288 288 288 287 287 287 287 286 286 286 286 286 286 286 286 285 285 285 285
282 282 282 282 282 283 283 284 284 284 285 285 285 285 285 285 285 285 285 285 285 285 285 285 285 285 285 284 284 284 285 286 286 286 285 285 285 285 285 284 285 285 284 283 283 282 283 283 285 286 286 287 288 289 289 289 289 289 288 288 288 289 289 288 288 288 288 287 287 287 287 287 287 286 286 286 286 286 286 286 286 286 285 285 285 285
282 282 282 283 283 284 284 284 285 285 285 285 285 285 285 285 285 285 285 285 285 285 285 285 285 285 285 285 285 286 286 287 286 286 285 285 284 284 284 284 284 284 284 283 283 282 282 283 283 284 285 285 286 287 288 289 288 288 288 287 287 288 288 288 287 287 287 287 287 287 287 286 286 286 286 286 286 286 286 286 286 285 285 285 284 284
282 282 283 283 284 284 285 285 285 285 285 285 285 285 285 285 285 285 285 285 285 285 285 285 285 285 285 286 286 287 287 287 286 286 285 284 284 284 284 284 284 284 283 283 283 283 282 283 283 283 283 284 285 286 287 287 287 287 287 287 287 287 287 287 286 286 286 286 286 286 286 286 286 286 286 286 286 286 286 286 286 285 285 285 285 285
283 283 284 284 284 285 285 285 285 285 285 285 285 285 285 285 285 285 285 285 285 285 286 286 286 286 286 286 286 287 287 287 286 286 285 284 284 283 283 284 284 283 283 282 282 282 282 282 282 282 283 283 284 285 286 286 286 286 286 286 286 286 286 286 286 286 286 286 286 286 286 286 286 286 286 286 286 286 286 285 285 285 285 285 285 285
283 284 284 285 285 285 285 285 285 285 285 285 285 285 285 285 285 285 285 285 286 286 286 286 286 286 286 286 286 287 287 287 287 286 286 285 284 284 283 284 284 283 283 282 282 282 282 282 282 282 282 282 283 284 285 286 285 285 286 286 286 286 286 286 286 286 285 285 286 286 286 286 286 286 286 286 286 285 285 285 285 285 285 285 285 285
284 284 285 285 285 285 285 285 285 285 285 285 285 285 285 285 285 286 286 286 286 286 286 286 286 286 286 287 287 287 287 287 287 287 287 286 285 284 284 284 284 284 282 282 282 282 282 282 282 282 282 282 282 283 284 284 285 285 285 286 286 286 287 287 286 286 285 285 285 285 285 285 285 285 285 285 285 285 285 285 285 285 285 285 285 285
284 285 285 285 285 285 285 285 285 285 285 285 285 285 285 286 286 286 286 286 286 286 286 286 286 286 287 287 287 287 288 288 288 288 287 287 286 285 284 284 284 284 284 283 283 282 282 282 282 282 282 282 283 283 283 283 284 284 285 285 286 286 286 286 286 285 285 285 285 285 285 285 285 285 285 285 285 285 285 285 285 285 285 285 285 285
285 285 285 285 285 285 285 285 285 285 285 285 286 286 286 286 286 286 286 286 286 286 286 286 287 287 287 287 287 288 288 288 288 288 288 287 287 286 285 284 284 285 284 284 283 282 282 282 282 282 282 282 283 283 283 283 283 283 284 284 285 285 286 286 285 285 285 285 285 285 285 285 285 285 285 285 285 284 284 284 285 285 285 285 285 285
285 285 285 285 285 285 285 285 285 285 285 286 286 286 286 286 286 286 286 286 286 286 286 287 287 287 287 288 288 288 288 288 288 288 288 287 287 286 285 285 285 285 284 284 283 283 282 282 282 282 282 282 282 282 283 283 283 283 283 283 284 285 286 286 285 285 285 285 285 285 285 285 284 284 284 284 284 284 284 284 284 284 284 284 284 285
285 285 285 285 285 285 285 285 285 286 286 286 286 286 286 286 286 286 286 286 286 286 286 286 287 287 287 288 288 288 288 288 288 287 287 287 286 286 286 285 285 284 284 284 283 283 282 282 282 282 282 282 282 282 283 283 283 283 283 283 283 284 285 285 285 285 285 285 285 285 284 284 284 284 284 284 284 284 285 285 284 284 284 284 285 285
285 285 285 285 285 285 285 285 285 286 286 286 286 286 286 286 286 286 286 286 286 286 286 287 287 287 287 288 288 288 288 288 287 287 287 287 286 286 285 285 285 284 283 283 283 283 283 283 283 283 283 283 283 283 283 283 283 283 283 283 283 283 284 284 285 285 285 285 285 285 284 284 284 284 285 285 285 285 285 285 285 285 285 285 285 285
285 285 285 285 285 285 285 285 285 285 285 286 286 286 286 286 286 286 286 287 287 287 287 287 287 287 288 288 289 289 288 288 287 287 287 286 286 286 285 285 284 283 283 283 283 283 283 283 283 283 283 283 283 283 283 283 283 283 283 283 283 283 283 284 285 285 285 285 285 285 284 285 284 285 285 285 285 285 285 285 285 285 285 285 285 285
285 285 285 285 285 285 285 285 285 285 285 286 286 286 286 286 286 286 286 287 287 287 287 287 287 287 288 288 289 289 288 288 287 287 286 286 286 285 284 284 284 283 283 283 283 283 283 283 283 283 283 283 283 283 283 283 283 283 283 283 283 283 283 284 285 285 285 285 285 285 285 285 285 284 285 285 285 285 285 285 285 285 285 285 285 285
285 285 285 285 285 285 285 285 285 285 285 286 286 286 286 286 286 286 286 287 287 287 287 287 287 287 287 288 288 288 289 288 288 287 286 286 286 285 284 284 284 283 283 283 283 283 283 283 283 283 283 283 283 283 283 283 283 283 284 284 284 284 284 284 284 284 284 284 285 285 285 285 285 285 285 285 285 285 285 285 285 285 285 285 285 286
284 284 284 285 285 285 285 285 285 286 286 286 286 286 286 286 286 286 287 287 287 287 287 287 286 286 286 287 287 287 288 288 288 287 287 286 285 285 284 284 284 283 283 283 283 283 283 283 283 283 283 283 283 283 283 283 283 283 284 284 284 284 284 284 284 284 284 284 284 285 285 285 285 285 285 285 285 285 285 285 285 285 285 285 286 286
284 284 284 284 285 285 285 286 286 286 286 287 287 287 287 287 286 286 286 286 287 287 287 286 286 285 285 286 286 286 286 286 287 287 286 286 286 285 285 284 284 284 283 283 283 283 283 283 283 283 283 283 283 283 284 284 284 284 284 284 284 284 284 284 284 284 285 285 285 285 285 285 285 285 285 285 286 286 285 285 285 286 286 286 286 286
284 284 284 284 285 285 285 286 286 286 287 287 287 287 287 286 286 286 287 286 286 286 286 286 285 285 285 285 285 285 285 285 285 286 286 286 285 285 285 284 284 283 283 283 283 283 283 283 283 283 283 283 283 284 284 284 284 284 284 284 284 284 284 284 284 285 285 285 285 285 285 285 285 286 286 286 286 286 286 286 286 286 286 286 286 286
284 284 284 285 285 285 286 286 286 287 287 287 287 287 287 286 286 286 286 286 286 286 285 285 284 284 285 285 285 285 284 284 284 285 285 285 285 284 284 284 283 283 283 283 283 283 283 283 283 283 283 283 284 284 284 284 284 284 284 284 284 284 284 285 285 285 285 285 285 285 285 285 286 286 286 286 286 286 286 286 286 286 286 286 286 286
284 284 284 285 285 286 286 286 286 287 287 287 287 287 287 287 286 286 286 286 286 286 285 285 284 284 284 284 285 284 284 284 284 284 284 284 283 283 283 283 283 283 283 283 283 283 283 283 283 284 284 284 284 284 284 284 285 284 284 284 285 285 285 285 285 285 285 285 285 285 285 285 285 286 286 286 286 286 286 286 286 286 286 286 286 286
284 284 285 285 285 286 286 286 287 287 287 287 287 287 287 287 287 287 286 286 286 285 285 284 284 283 283 284 284 284 283 283 283 283 283 283 283 283 282 282 283 283 283 283 283 283 283 283 283 284 284 285 285 285 284 285 285 285 285 285 285 285 285 285 285 285 285 285 285 285 285 285 285 286 286 286 286 286 286 286 286 286 286 286 286 286
Wind_Speed
18 19 20 21 20 20 20 20 20 21 22 23 23 24 24 24 25 25 25 25 25 25 26 26 25 25 24 23 22 21 21 21 21 21 22 22 23 23 24 25 25 26 26 26 27 27 27 27 27 26 26 25 25 25 25 25 26 26 25 25 24 23 22 23 23 23 22 22 23 23 23 24 24 25 25 26 27 27 27 28 28 28 29 29 29 29
17 18 19 20 20 19 20 20 20 21 21 22 23 23 23 24 24 24 24 24 25 25 25 25 25 24 24 23 22 21 21 21 21 21 22 22 22 23 23 24 25 25 25 26 26 26 26 26 25 25 24 24 24 24 24 25 25 25 25 24 24 23 23 23 23 23 23 23 23 23 24 24 24 25 25 26 27 27 27 27 28 28 28 29 29 29
15 16 17 19 19 19 20 20 21 21 21 22 22 23 23 23 23 23 24 24 24 25 24 24 24 24 23 23 22 22 22 22 22 22 22 22 22 22 23 23 23 24 24 24 24 24 24 24 23 23 23 23 23 23 23 24 24 24 24 24 24 24 24 24 25 25 25 25 24 24 24 24 25 25 25 26 26 27 27 27 27 28 28 28 28 28
14 15 16 17 18 19 19 19 20 20 21 21 22 22 22 22 23 23 24 24 24 24 24 23 23 23 23 23 23 23 23 23 23 23 23 23 22 22 21 21 21 21 21 21 22 22 22 22 22 22 22 22 22 23 23 24 24 24 24 24 24 25 25 26 26 27 27 27 27 27 27 27 27 27 27 27 27 27 27 27 27 27 27 28 28 28
15 15 16 16 17 17 18 18 18 19 20 20 21 21 21 22 22 23 24 24 24 23 23 23 22 23 23 24 24 24 24 24 24 24 23 22 21 21 20 19 19 19 18 19 19 19 19 20 20 20 21 21 22 22 23 24 25 25 25 25 25 26 26 27 27 28 28 29 29 29 30 30 30 30 30 30 30 30 30 30 29 29 28 28 28 27
14 15 15 16 16 17 18 18 18 18 19 19 19 19 20 21 22 22 23 23 22 22 22 22 22 23 24 25 25 25 25 25 25 24 23 22 20 19 18 17 17 16 16 16 16 16 17 17 18 19 19 20 21 22 23 24 24 25 25 26 26 26 27 27 28 29 29 30 30 31 31 31 32 32 32 32 32 32 32 32 31 30 30 28 28 28
14 14 14 15 16 17 18 18 17 17 16 16 17 19 20 21 21 21 21 21 21 21 21 22 23 24 24 25 26 26 26 25 24 23 22 20 19 17 17 16 16 15 15 15 15 15 15 16 16 17 18 19 20 21 21 22 23 24 25 25 26 26 27 28 28 29 29 30 30 30 31 31 31 31 32 32 32 32 32 32 31 31 30 29 28 28
14 14 14 15 16 17 17 16 15 15 14 15 17 19 20 20 19 19 18 18 18 19 20 21 22 24 25 26 26 26 25 24 23 22 20 19 17 17 16 16 16 15 15 15 14 14 15 15 15 16 17 17 18 19 20 21 22 23 24 24 25 26 26 27 27 28 28 29 29 29 30 30 30 30 30 30 30 30 30 30 30 30 30 30 29 29
14 14 15 16 16 16 15 15 14 14 15 16 17 18 18 18 17 16 16 15 16 16 18 19 22 24 26 26 26 25 24 23 22 20 19 18 17 17 17 17 17 16 16 16 16 16 16 16 16 16 16 17 17 18 19 20 21 22 23 23 24 25 25 26 26 27 27 27 28 28 28 28 29 29 29 29 29 29 30 30 30 30 30 30 30 29
14 15 15 15 15 15 15 15 15 15 15 15 15 16 15 15 14 13 13 14 14 16 17 20 23 25 26 26 25 24 23 21 20 18 17 17 17 18 18 18 18 18 18 18 18 18 18 17 17 17 17 17 17 18 18 19 20 21 22 23 23 24 24 25 25 26 26 26 27 27 27 28 28 28 29 29 29 29 30 30 30 31 31 30 30 29
15 15 14 14 14 14 14 14 14 14 13 13 13 12 11 10 11 12 13 15 17 19 20 22 24 25 25 25 24 23 21 20 19 17 17 17 18 18 19 19 19 20 20 20 19 19 18 17 17 16 16 16 16 17 17 18 19 20 21 21 22 23 23 24 24 25 25 26 26 27 27 27 28 28 29 29 29 30 30 30 31 31 31 31 31 30
14 13 13 13 13 13 13 12 12 11 10 10 10 10 9 9 9 12 15 18 20 22 23 24 24 24 24 24 23 22 20 19 18 18 18 18 19 19 20 20 21 21 21 20 19 18 17 17 16 15 15 15 15 16 16 17 18 19 19 20 21 22 22 23 24 24 25 26 26 27 27 28 28 29 29 30 30 31 31 31 32 32 32 32 32 31
13 13 12 12 12 11 10 9 9 8 8 8 9 9 10 10 12 14 17 20 21 22 23 23 24 24 24 23 21 20 18 17 17 18 18 19 20 20 21 22 22 23 22 21 20 18 17 16 15 14 14 14 14 15 15 16 17 18 19 19 20 21 22 23 24 24 25 26 27 27 28 28 29 30 30 31 31 32 32 33 33 33 33 33 33 32
12 11 11 10 10 9 8 8 8 9 9 9 10 11 12 13 15 17 18 19 20 20 21 23 24 25 24 21 19 17 16 16 17 17 18 19 20 21 21 22 23 23 22 21 20 17 16 15 14 13 13 13 14 15 15 16 17 18 19 20 20 21 22 23 24 25 25 26 27 28 28 29 29 30 30 31 31 32 32 33 33 33 33 33 33 32
10 9 9 9 9 9 9 9 10 10 10 10 11 11 13 14 15 16 17 18 19 21 22 23 24 24 22 19 17 15 15 15 16 17 19 20 21 21 22 23 23 22 21 21 19 17 15 15 15 14 14 14 15 16 17 17 18 19 19 20 20 21 22 22 23 24 25 26 26 27 27 28 28 28 29 29 30 30 31 31 32 32 32 32 32 31
9 9 9 10 11 11 11 10 10 11 11 11 11 12 14 14 15 16 16 18 20 21 22 23 23 22 21 18 16 14 13 14 16 18 21 23 22 21 22 23 23 22 20 20 19 18 16 16 16 16 16 16 16 17 17 18 18 19 19 19 20 20 21 21 22 23 23 24 24 25 25 25 26 26 27 27 28 28 29 30 30 31 31 31 31 31
11 11 11 11 11 11 10 10 10 11 11 11 12 13 14 15 16 17 18 19 20 21 20 20 20 19 19 18 16 14 14 14 17 20 22 24 24 22 22 22 22 22 20 20 19 19 18 17 17 17 17 17 17 17 18 18 18 18 18 18 18 19 19 20 20 21 21 22 22 23 23 24 24 25 25 26 26 27 28 29 29 30 30 30 30 30
11 10 10 10 10 10 9 9 10 11 11 12 12 13 15 16 18 19 19 20 20 19 18 18 18 18 19 19 18 16 16 17 19 22 24 26 25 22 21 21 22 22 21 21 20 19 19 19 19 19 19 18 18 18 18 18 17 17 17 17 18 18 19 19 20 20 21 22 22 23 24 24 25 25 26 26 27 27 28 29 29 29 29 30 30 30
9 9 8 9 9 10 10 10 10 10 11 12 14 16 17 19 19 20 20 19 18 17 17 17 18 19 19 20 19 18 18 19 21 23 25 27 25 22 20 21 22 22 22 22 21 21 21 20 20 20 19 19 19 19 18 18 18 17 17 18 18 18 19 19 20 21 22 22 23 24 25 25 26 26 27 27 28 28 29 30 30 30 30 30 30 30
10 9 9 9 10 11 11 11 11 12 13 15 18 19 20 20 20 20 19 18 16 15 16 16 18 19 20 21 21 20 20 21 23 24 25 26 25 22 20 21 22 23 23 22 22 22 22 22 21 20 19 19 19 19 19 19 19 18 18 18 18 18 19 20 20 21 22 22 23 24 24 25 26 26 27 28 28 29 30 30 31 31 31 31 31 31
14 13 13 12 12 12 12 12 13 14 17 19 20 21 21 21 20 18 17 16 15 15 16 17 19 20 21 22 23 22 21 22 23 23 24 25 24 22 21 21 22 23 24 23 23 22 23 22 21 20 20 20 20 20 20 19 19 19 19 19 19 19 20 20 21 21 22 22 22 23 24 24 25 26 26 27 28 29 30 30 31 31 31 31 31 32
18 17 16 14 14 15 16 17 18 19 21 22 21 21 20 19 17 17 16 16 16 16 18 19 21 22 23 24 24 22 20 20 20 21 22 24 24 23 21 21 22 23 24 24 24 23 23 23 22 21 21 20 20 20 20 20 19 19 19 19 20 20 21 21 22 22 23 23 23 23 24 24 24 25 25 26 27 28 29 30 30 31 31 32 32 32
18 17 16 16 17 18 20 21 22 23 23 22 21 20 19 18 17 17 17 17 18 19 21 22 23 24 24 24 23 21 19 18 18 18 19 22 24 24 22 22 22 23 25 25 25 25 24 23 22 22 21 21 20 20 20 20 19 19 20 20 21 21 22 23 23 24 24 25 25 25 25 25 25 25 25 25 26 27 28 29 29 30 31 31 32 33
17 17 18 18 19 20 21 21 21 21 21 20 20 19 19 19 18 18 18 19 20 22 23 24 24 24 23 22 22 20 19 17 17 17 18 21 23 24 23 23 23 24 25 25 26 26 25 24 23 22 22 21 21 20 20 20 20 20 20 21 21 22 23 24 24 25 26 26 26 26 26 25 25 25 25 25 25 26 27 27 28 29 30 30 31 32
18 18 19 19 19 20 19 19 19 19 19 19 19 19 19 19 19 19 20 21 21 22 23 23 24 24 23 22 21 20 18 18 17 17 18 20 23 24 23 22 23 24 26 26 26 26 27 26 25 24 23 22 22 21 21 20 21 21 21 22 22 23 24 25 25 26 26 27 27 27 26 26 26 25 25 25 25 25 25 26 27 27 28 29 30 30
17 18 18 18 18 18 18 18 18 18 18 19 19 19 19 19 20 20 21 21 21 21 22 22 23 23 23 22 22 21 19 18 17 17 18 19 22 24 23 22 23 24 26 27 27 27 28 29 28 26 25 23 22 22 21 21 21 22 22 23 24 24 25 26 26 27 27 27 27 27 27 27 27 26 26 25 25 25 25 25 25 26 27 27 28 29
15 16 16 16 16 17 17 17 18 18 18 18 18 19 19 20 21 21 22 21 20 20 20 21 22 23 23 22 22 21 20 19 19 18 18 19 22 24 23 22 22 23 25 27 28 29 30 30 29 28 26 25 24 23 22 22 23 23 24 24 25 26 26 27 27 28 28 28 28 28 28 28 28 27 27 26 25 25 24 24 24 25 25 26 27 28
13 14 14 15 15 16 17 17 17 17 17 17 17 17 18 19 20 21 21 20 19 20 20 21 22 22 23 23 23 22 21 21 20 18 17 18 21 22 22 22 23 24 25 28 30 31 30 31 30 29 27 26 25 24 24 24 24 24 25 26 26 27 27 28 29 29 29 29 29 29 29 29 29 28 28 27 26 25 24 24 23 24 24 25 27 28
13 13 13 14 15 15 16 16 17 16 16 16 16 16 17 18 19 20 19 18 19 19 20 21 22 22 22 23 23 24 23 22 19 16 15 16 18 21 22 23 24 24 25 28 31 32 31 31 30 29 28 27 26 25 25 25 25 26 26 27 27 28 28 29 30 30 31 31 31 31 30 30 30 29 28 28 27 25 24 23 23 23 24 25 26 28
14 14 14 14 14 15 15 15 15 15 14 14 15 15 16 17 18 18 18 18 18 19 20 21 21 21 22 23 24 24 24 20 15 13 13 15 18 21 24 25 25 26 26 27 29 31 31 31 30 28 28 28 27 26 26 26 26 27 28 28 29 29 30 31 31 32 32 32 32 32 31 31 31 30 29 28 27 26 25 24 23 23 24 25 26 27
14 14 15 15 15 15 14 14 13 13 13 13 14 14 15 16 16 17 17 17 18 19 19 20 20 21 21 22 22 23 23 19 16 14 16 17 21 24 25 26 27 27 27 26 26 27 30 31 31 30 29 29 28 27 27 27 28 28 29 30 31 31 31 32 32 33 33 33 33 33 32 32 31 31 30 29 27 26 25 24 23 23 24 25 26 27
13 14 14 14 14 13 13 13 12 12 13 13 13 14 14 15 15 16 16 17 17 18 19 19 20 21 21 22 22 23 24 22 20 20 20 21 24 26 26 27 27 27 27 25 25 25 25 30 33 33 32 31 30 29 29 28 29 30 30 31 32 32 32 33 33 33 33 34 34 33 33 32 32 31 30 28 27 26 25 24 23 23 23 25 26 27
13 13 13 12 12 12 12 12 12 12 13 13 13 14 14 15 15 16 16 16 17 18 18 19 20 21 22 23 24 25 26 25 23 22 22 23 25 26 27 27 27 27 27 27 26 26 26 30 33 35 34 33 33 32 31 30 30 30 30 31 32 33 33 33 33 33 34 34 34 34 33 32 32 31 29 28 27 27 26 25 24 23 23 24 25 27
12 11 11 11 11 11 12 12 12 13 13 13 14 14 14 15 15 16 16 16 17 18 18 19 20 21 22 23 24 26 26 25 23 23 23 23 24 25 27 27 28 29 29 28 27 27 28 29 31 32 33 33 34 33 33 32 31 30 30 31 32 33 33 33 33 33 34 34 34 34 33 32 32 31 30 29 28 27 27 26 25 24 23 24 25 26
11 10 10 10 11 11 12 12 13 13 14 14 14 14 15 15 15 15 16 16 17 17 18 19 20 21 22 23 25 26 26 25 23 23 24 24 24 26 27 28 28 28 28 28 28 28 28 29 30 30 32 33 34 34 33 32 31 31 31 31 32 32 33 33 33 33 34 34 34 33 33 32 32 31 31 30 29 28 28 27 26 25 24 24 24 25
10 10 10 10 11 11 12 12 13 14 14 14 14 15 15 15 15 15 16 16 17 17 18 19 20 21 22 23 24 25 26 25 24 23 24 24 24 25 26 27 26 26 26 27 28 28 29 30 31 31 31 33 34 35 34 32 31 31 32 32 32 33 33 33 33 34 34 34 34 34 33 33 32 32 31 30 30 29 28 27 26 25 25 24 24 24
10 9 10 10 11 12 12 13 13 14 14 15 15 15 15 15 15 15 16 16 17 18 19 20 21 22 23 24 25 25 26 25 24 23 23 22 22 23 24 25 24 24 25 26 27 28 30 31 32 31 31 31 31 32 33 34 34 34 35 34 34 34 35 34 34 34 34 34 34 34 33 33 32 32 32 31 30 30 29 28 27 26 25 24 24 23
9 9 10 10 11 12 13 13 14 14 15 15 15 15 15 15 15 16 16 17 18 19 20 21 22 23 24 25 25 26 26 25 24 23 22 21 21 21 22 23 24 23 23 25 26 28 29 31 32 33 33 32 32 33 34 34 35 36 37 36 36 36 36 35 35 34 34 34 34 34 33 33 33 32 32 31 31 30 30 29 28 27 26 26 26 25
9 9 10 11 12 13 13 14 14 14 14 14 14 15 15 15 16 16 17 18 19 20 21 22 23 24 25 25 25 26 26 25 25 24 23 22 21 21 21 23 23 23 23 24 25 26 28 30 32 33 33 34 35 36 36 36 36 37 38 38 38 38 37 36 35 35 34 34 34 35 34 33 33 32 32 32 31 31 31 30 30 29 28 28 28 28
9 10 10 11 12 13 13 13 14 14 14 14 14 15 15 16 17 17 18 19 20 21 22 23 24 25 25 25 26 26 26 25 25 24 23 22 22 21 21 22 23 23 23 24 25 26 28 30 32 33 34 35 36 36 36 37 37 37 37 37 38 40 39 38 36 36 35 35 35 34 34 34 33 33 32 32 31 31 31 31 31 30 29 29 29 29
9 10 11 11 12 12 12 13 13 13 14 14 15 15 16 16 17 18 19 20 21 22 23 24 24 25 25 26 26 26 26 26 25 25 24 23 22 21 21 22 22 23 23 24 25 27 28 30 32 33 34 35 36 36 37 37 37 36 35 36 38 40 41 40 38 36 35 35 34 34 34 33 33 33 33 32 32 32 31 31 31 31 31 29 29 30
10 10 11 11 11 11 12 12 13 13 14 14 15 15 16 17 18 19 20 21 22 22 23 23 24 25 25 26 26 26 26 25 25 24 24 23 22 22 21 22 22 23 23 25 26 28 29 30 32 33 34 35 36 37 38 39 39 38 37 38 39 40 41 40 38 36 35 35 35 34 34 34 34 34 34 33 33 33 33 32 32 32 31 31 31 32
10 10 10 10 11 11 12 13 13 14 14 15 15 16 17 18 19 20 21 21 22 23 23 24 24 25 25 26 26 26 26 25 25 25 24 23 22 22 21 22 22 22 23 25 27 29 29 30 32 33 34 34 35 36 38 39 40 39 39 38 38 38 39 40 39 37 37 37 36 36 36 35 35 35 35 34 35 35 35 34 33 33 33 33 33 34
9 10 10 10 11 12 13 13 14 14 15 16 16 17 18 19 20 20 21 22 22 22 23 23 24 24 25 26 26 26 26 26 26 25 24 23 22 21 21 21 21 21 22 24 26 28 30 31 32 32 33 33 35 36 38 39 40 40 40 39 38 38 38 39 40 39 39 39 38 37 36 36 35 35 36 36 36 36 36 36 36 36 36 35 35 34
10 10 11 11 12 13 13 14 14 15 16 16 17 18 19 19 20 21 21 21 22 22 22 22 23 24 25 25 26 26 27 27 26 26 25 24 23 21 21 20 21 21 22 24 25 27 29 31 32 33 33 34 35 37 38 40 41 41 41 40 38 38 39 39 39 39 38 38 38 37 36 35 35 35 36 37 38 38 37 37 37 37 37 36 35 35
10 11 12 13 13 14 14 15 15 16 16 17 18 18 19 19 20 20 21 21 21 21 22 22 22 23 24 25 26 26 27 27 27 27 26 25 24 23 22 22 21 22 22 24 25 26 28 30 32 33 33 35 36 37 38 39 39 40 41 40 39 38 39 39 38 38 37 37 38 38 37 36 35 35 36 38 39 39 38 38 37 37 37 36 36 36
11 12 13 14 14 15 15 16 16 17 18 18 19 19 20 20 20 21 21 21 21 21 21 22 22 23 24 25 25 26 27 28 28 28 27 26 25 24 24 24 24 23 24 24 25 27 28 29 31 32 33 35 37 38 38 38 38 38 39 38 38 38 38 38 38 37 37 37 37 37 37 36 36 36 37 38 39 39 39 38 38 37 37 36 36 36
13 13 14 15 16 16 16 17 17 18 19 19 20 20 20 20 21 21 21 21 21 21 21 22 22 23 24 25 25 26 26 27 28 28 28 27 27 27 26 26 26 26 26 26 27 27 29 29 30 30 31 33 35 37 38 37 36 36 36 37 37 37 38 38 38 37 37 37 37 37 36 35 35 36 37 38 39 39 40 39 38 37 37 36 36 36
14 15 15 16 17 17 18 18 19 19 20 20 20 20 21 21 21 21 21 21 21 21 22 22 23 24 25 26 26 26 26 27 28 28 29 28 28 29 29 28 28 27 28 28 29 29 29 30 30 30 29 30 31 34 35 36 35 35 35 35 36 36 37 37 37 37 36 36 36 36 35 35 35 36 37 38 39 40 41 40 39 38 36 35 34 34
15 15 16 17 17 18 19 19 20 20 20 20 21 21 21 21 22 21 21 21 21 22 22 23 23 24 25 26 26 26 26 27 28 29 29 29 29 29 30 30 30 30 30 30 30 30 30 30 30 30 28 27 27 29 31 33 34 34 34 34 34 34 35 35 36 35 35 35 35 36 36 36 37 37 37 37 39 40 41 40 39 37 36 34 33 33
15 16 16 17 18 19 19 20 20 21 21 21 21 21 22 22 22 22 22 22 22 23 23 24 24 24 25 26 26 27 27 27 28 29 30 29 29 30 30 30 31 31 31 31 31 30 30 30 29 29 29 27 25 24 26 29 32 33 33 34 33 32 32 33 34 34 35 35 36 36 37 37 37 37 36 36 37 38 39 39 39 37 36 34 33 33
Wind_Direction
256 259 263 265 268 271 274 277 281 285 289 292 296 299 302 304 304 304 304 304 305 306 307 307 308 309 309 310 311 312 311 311 309 307 305 303 302 300 298 297 296 295 295 294 294 293 293 292 292 291 291 290 289 288 288 288 288 288 288 287 286 284 282 281 280 281 280 278 277 275 274 273 272 271 270 269 269 269 270 270 270 270 270 270 271 271
257 259 262 266 269 273 277 281 285 289 294 298 300 303 305 305 305 304 305 306 307 308 309 309 309 310 311 312 313 313 313 312 311 309 308 306 304 303 301 299 297 296 295 294 294 293 292 292 292 292 291 290 290 289 288 288 288 288 289 288 287 285 282 280 279 279 280 279 278 277 276 275 273 272 271 271 271 271 271 272 272 272 273 273 273 274
263 265 269 274 278 282 287 291 295 298 301 303 304 305 305 305 305 306 308 309 309 309 309 309 310 311 312 313 314 314 314 314 313 312 311 310 308 305 303 301 299 297 296 295 294 293 293 293 293 293 292 292 291 290 289 288 289 289 289 288 287 285 283 280 279 278 278 278 278 278 277 276 275 274 274 274 273 273 273 273 273 274 274 274 274 275
265 271 276 283 289 293 296 299 302 304 305 304 304 305 305 305 306 307 309 310 310 310 309 309 310 311 313 314 315 316 316 316 316 315 314 312 310 307 305 302 300 298 296 296 295 294 294 295 294 294 293 293 292 291 290 289 289 289 287 286 285 283 281 280 278 277 276 276 275 275 275 275 275 275 275 274 275 275 275 275 275 275 275 275 275 276
272 278 283 288 292 295 297 298 299 300 301 301 302 303 305 306 307 308 309 310 310 310 309 309 310 312 314 316 317 318 318 318 317 317 316 314 312 309 306 304 301 300 299 298 297 297 296 296 295 294 293 292 291 289 288 288 288 287 286 284 282 280 279 278 277 276 276 275 274 274 274 274 274 274 275 275 275 276 276 276 277 277 277 277 276 276
282 286 289 290 290 291 293 294 296 297 298 299 300 301 303 305 306 307 307 308 308 309 310 311 312 314 315 317 318 318 318 318 317 317 316 315 314 312 309 307 305 304 302 301 300 298 296 295 293 292 290 289 287 286 285 285 285 285 284 283 281 280 279 278 277 277 276 276 276 276 276 276 276 276 276 277 277 277 277 278 278 278 277 277 277 276
288 288 288 287 288 290 292 294 296 297 298 298 299 300 301 303 304 305 305 306 307 309 310 312 313 314 315 316 317 317 317 317 317 317 317 317 316 314 313 311 310 309 308 305 303 300 297 294 291 290 288 286 285 284 283 283 282 283 282 282 281 280 279 279 278 278 278 278 278 278 278 278 278 279 279 279 279 279 279 279 279 278 278 277 276 276
288 286 284 284 286 290 293 294 295 294 294 294 296 298 300 302 303 304 305 306 307 308 309 310 311 312 313 314 315 315 316 317 318 319 319 319 318 318 317 317 316 315 314 312 309 306 304 301 298 295 292 289 287 285 284 283 282 281 280 280 279 279 279 279 279 279 280 280 280 280 280 280 281 281 281 280 280 280 280 280 279 279 278 278 277 277
287 286 285 286 288 290 292 291 290 289 290 292 294 297 301 303 304 305 305 304 303 303 304 304 306 308 310 312 313 315 316 317 319 320 321 322 322 323 322 322 322 321 320 319 318 316 314 311 308 304 300 296 292 289 286 284 282 281 280 279 279 279 280 280 280 281 281 282 282 282 282 282 282 282 282 282 281 281 281 281 280 280 280 279 278 278
289 289 290 291 291 291 291 291 291 291 293 295 297 300 302 303 304 302 299 295 294 295 297 299 302 305 308 311 314 316 317 319 320 321 323 325 325 326 325 325 325 325 324 323 322 320 318 316 312 308 304 299 295 291 288 286 284 282 281 281 281 281 281 282 282 282 283 283 283 283 283 283 283 283 282 282 282 282 282 281 281 281 280 280 279 277
288 290 291 291 292 292 293 294 296 298 301 302 303 304 303 299 295 292 289 288 289 292 295 298 301 305 308 311 314 318 320 321 323 325 326 327 327 327 325 324 324 324 323 322 321 320 318 315 312 308 304 299 296 293 290 288 286 285 284 284 284 284 284 284 284 284 284 284 284 283 283 283 283 283 283 283 283 282 282 282 281 281 280 279 278 277
285 286 287 287 288 291 293 297 301 304 303 301 299 297 293 285 280 280 283 286 290 294 298 300 303 305 308 311 315 319 322 323 324 326 328 328 327 325 323 322 321 321 321 321 321 321 319 316 312 308 304 300 296 294 292 290 289 288 287 287 287 286 286 286 285 285 285 284 284 284 284 284 284 283 283 283 283 283 282 282 281 280 279 279 278 277
284 285 286 287 287 289 292 295 296 294 290 286 284 282 280 276 276 278 284 288 292 296 300 301 303 305 309 314 318 321 323 324 324 325 324 324 323 321 319 318 319 320 321 322 323 324 322 318 313 309 305 301 298 296 294 293 292 292 291 291 290 289 288 287 287 286 285 285 284 284 284 284 284 284 284 283 283 283 282 281 281 280 279 278 278 277
281 285 287 286 285 284 284 283 281 278 276 275 275 274 274 275 278 283 288 291 294 296 298 299 302 306 312 318 323 326 325 323 322 320 318 318 318 318 316 315 317 320 322 322 323 325 324 320 316 312 308 305 303 301 300 299 298 297 296 295 293 291 290 288 287 286 285 285 284 284 284 283 283 283 283 283 282 281 281 280 280 279 279 278 278 277
275 276 274 273 273 273 273 273 273 273 273 273 273 273 274 277 281 286 289 291 292 294 297 300 305 310 316 321 326 328 326 321 316 313 312 313 316 317 315 314 316 320 322 322 323 325 326 323 321 318 315 311 309 307 306 304 303 301 299 297 294 292 290 288 287 286 285 285 284 284 284 283 283 283 282 281 281 280 279 279 279 278 278 278 278 277
265 262 261 264 267 270 271 271 271 272 272 272 272 274 277 280 283 285 286 288 291 296 301 305 309 312 316 321 327 328 323 315 310 308 309 310 315 319 317 315 315 319 322 323 325 327 328 327 324 321 318 315 313 311 309 308 306 303 301 298 296 293 291 289 288 287 287 286 286 285 285 284 283 282 282 281 280 279 279 278 278 277 277 277 277 277
261 261 263 266 269 270 271 270 270 270 271 273 274 276 278 279 281 283 285 289 294 299 304 307 308 308 310 316 323 325 320 312 307 307 308 310 315 320 320 317 317 320 324 325 327 329 329 328 325 322 319 317 315 314 312 310 309 307 304 301 299 296 294 292 291 290 289 289 288 287 286 285 284 283 282 281 280 279 279 278 278 277 276 276 276 276
265 266 268 269 269 270 270 270 271 271 273 274 274 274 274 276 279 283 288 292 297 301 303 303 302 302 303 306 314 321 317 310 307 306 307 309 315 321 323 320 319 321 324 326 328 329 329 327 326 323 321 319 317 316 315 314 313 311 308 306 303 300 298 296 294 293 292 291 289 288 287 286 285 284 283 282 281 280 279 278 277 277 276 275 275 276
264 265 266 267 268 268 269 270 271 272 272 270 269 271 273 277 281 285 290 294 298 299 298 297 296 297 299 302 308 314 313 308 305 305 306 309 315 322 325 323 322 322 324 326 328 328 328 327 325 323 321 320 319 318 318 317 316 314 312 308 305 302 300 298 296 295 294 292 291 290 289 288 286 285 284 283 281 280 279 278 277 276 275 274 274 274
255 257 258 263 266 268 269 269 267 265 264 265 268 272 276 280 285 288 292 296 297 296 294 294 294 296 298 300 305 309 309 306 304 305 306 310 316 323 326 324 321 321 323 325 327 327 327 326 325 323 322 321 320 320 320 319 317 315 312 309 306 304 302 300 299 298 298 297 296 294 293 291 289 287 285 284 282 281 279 278 277 277 275 274 273 273
256 258 260 263 266 267 266 264 261 259 261 266 271 276 279 284 288 292 296 297 296 293 292 292 292 294 297 298 301 306 311 309 307 307 309 311 316 322 326 323 319 318 319 322 325 326 326 325 325 324 323 322 321 320 320 318 316 314 311 309 308 307 306 306 306 305 305 304 302 300 298 295 293 290 288 285 283 282 280 279 278 277 276 274 273 272
265 266 267 265 262 261 260 258 260 264 268 272 276 280 283 286 290 293 295 295 291 289 288 288 291 295 297 299 303 309 315 313 311 309 309 308 311 318 324 320 315 314 315 320 323 325 325 325 325 324 322 321 320 320 318 317 315 313 311 311 310 310 311 311 312 312 311 310 308 306 304 301 297 294 291 288 286 284 282 280 279 278 277 275 273 272
267 266 264 261 259 258 260 263 266 271 275 278 282 285 287 288 290 291 291 290 288 288 290 293 297 299 301 303 307 313 317 317 315 311 305 301 305 312 320 317 313 312 313 318 320 321 322 323 323 323 321 320 320 319 317 316 314 313 312 312 312 312 313 314 314 314 314 313 312 310 307 305 302 299 295 292 289 286 284 282 281 279 278 277 275 273
264 262 261 261 263 265 268 271 274 278 281 284 287 289 291 292 292 291 291 291 291 293 296 298 300 301 304 308 311 314 317 318 315 308 300 296 301 309 315 315 312 310 312 315 317 318 318 319 321 322 321 320 319 318 316 315 313 312 312 312 312 313 314 314 314 314 313 313 312 311 309 307 305 302 299 295 292 289 286 284 282 281 279 278 277 276
267 267 268 269 271 273 275 278 281 283 286 289 291 292 294 294 294 293 292 292 293 295 298 299 298 300 306 310 311 312 315 315 310 303 297 296 300 306 312 312 308 306 309 313 315 315 315 316 318 320 320 320 319 318 316 315 313 313 313 313 313 314 314 314 314 313 312 312 311 310 310 308 307 305 302 299 296 292 289 286 284 282 281 279 278 277
271 272 273 274 275 277 279 281 284 286 289 290 291 292 292 291 290 289 289 291 294 297 297 296 296 299 305 307 307 308 311 310 307 302 297 294 296 300 307 310 309 307 308 310 312 312 311 313 316 318 320 320 319 318 317 316 315 315 314 314 315 314 314 314 313 312 312 311 311 311 311 310 309 308 306 304 301 297 294 290 287 285 283 282 280 279
270 271 272 273 275 277 279 281 284 286 287 288 289 290 289 288 287 287 288 292 296 296 294 291 292 295 300 302 303 305 307 306 304 301 299 295 294 298 305 310 310 309 307 306 306 307 308 310 314 317 319 320 320 320 319 318 318 317 316 316 315 315 314 313 313 313 312 312 312 312 312 312 311 310 309 307 304 301 298 294 291 289 287 285 283 280
270 271 272 274 276 278 280 282 283 285 286 287 287 287 287 285 284 285 289 294 295 291 287 286 287 290 294 296 300 303 304 305 306 307 304 300 297 298 305 309 309 306 304 304 304 306 307 309 313 316 319 321 322 322 321 320 319 318 317 316 315 315 314 314 314 314 314 314 314 313 313 313 312 311 310 308 306 304 301 298 295 293 290 288 285 282
280 278 277 278 279 281 282 283 284 285 286 286 286 285 284 283 282 285 290 292 290 285 282 283 285 288 290 294 299 303 304 310 315 316 311 304 298 298 304 306 305 304 303 304 306 307 307 309 312 315 318 320 321 321 321 320 319 317 316 316 316 315 315 315 315 315 315 314 314 314 314 313 312 312 311 309 308 306 304 301 299 296 293 290 286 284
289 289 288 287 286 286 285 285 285 285 285 284 283 283 282 282 283 285 288 287 284 281 281 283 285 287 290 293 297 300 304 314 319 314 305 296 292 294 300 301 302 303 304 305 307 308 307 309 311 313 315 317 318 319 319 319 318 318 317 317 317 317 317 317 316 315 315 314 314 314 313 313 312 312 311 310 308 307 305 303 301 298 294 291 288 286
287 289 291 291 291 290 289 288 287 285 284 282 281 281 281 282 283 284 284 283 282 282 283 284 286 287 288 289 290 292 298 307 309 301 294 290 289 292 297 299 301 303 305 305 304 305 305 307 309 311 313 314 316 317 319 319 319 318 318 318 318 317 317 317 316 315 314 314 313 313 313 312 311 311 310 309 308 307 306 305 303 299 295 292 289 288
284 285 287 288 289 289 289 289 288 287 285 284 283 282 282 282 282 282 282 282 282 283 284 285 286 288 288 288 287 289 295 302 303 300 296 293 293 296 298 299 301 303 304 303 299 297 298 301 305 309 312 313 316 318 319 320 319 319 318 317 316 316 317 317 316 314 314 313 313 312 311 311 310 310 310 309 309 309 308 308 306 301 297 293 290 289
285 286 287 287 288 288 289 289 289 289 288 287 286 285 284 283 283 282 282 282 282 283 284 285 287 289 290 291 292 295 299 303 304 303 301 298 297 297 299 299 300 300 302 300 297 294 292 295 301 306 310 312 315 316 318 319 319 318 317 315 315 315 316 316 315 313 312 312 311 311 311 310 311 311 311 311 311 311 311 310 308 304 298 293 291 290
286 287 288 288 289 289 290 290 291 291 290 289 288 287 285 284 283 282 282 282 282 283 285 287 289 291 293 293 295 299 303 305 306 305 301 298 295 295 297 297 297 298 299 299 298 296 295 295 298 302 305 308 311 313 315 316 317 318 317 315 313 313 314 314 313 311 311 310 310 310 311 312 312 312 313 313 313 313 312 311 309 304 299 293 290 289
289 289 289 289 289 290 291 292 292 292 292 291 289 288 286 285 284 283 283 283 284 285 287 290 292 293 294 294 296 298 302 305 305 302 298 294 292 293 294 295 296 297 298 298 298 297 296 297 298 300 301 304 307 310 312 314 315 316 316 315 313 312 313 313 312 310 310 310 310 310 311 312 313 313 313 314 314 313 312 309 306 302 297 292 288 286
290 289 289 290 291 292 293 294 294 293 293 292 291 289 289 288 288 287 288 288 289 290 291 293 294 295 296 296 296 298 301 303 302 299 297 295 294 294 294 295 297 298 297 297 297 297 297 298 299 300 299 299 302 306 311 314 314 314 314 314 314 314 314 314 313 311 310 310 310 310 311 312 312 312 313 313 313 311 309 306 304 302 299 295 291 287
288 288 290 292 293 295 295 296 295 294 292 291 291 291 291 291 291 291 291 292 293 294 295 295 296 296 297 297 297 299 300 301 301 300 301 301 301 299 298 299 300 299 297 296 297 298 298 298 299 299 297 296 297 301 306 311 312 312 312 314 314 315 316 316 316 314 311 310 310 310 311 310 310 310 311 312 312 311 309 308 307 306 305 303 300 295
286 288 291 294 295 296 297 296 295 293 292 291 291 291 292 292 293 293 293 294 294 295 295 295 296 296 297 297 298 299 299 300 301 304 306 307 307 305 303 303 303 303 301 299 299 299 298 296 295 296 297 297 298 300 302 306 308 309 311 314 315 315 315 317 316 314 312 310 309 309 309 309 309 309 310 311 312 311 310 310 310 310 310 308 306 302
287 290 293 295 296 297 296 296 295 294 293 293 293 293 293 293 293 294 294 295 295 295 296 297 297 298 298 298 299 300 301 302 304 307 310 311 310 309 307 305 305 306 306 304 302 300 297 294 293 292 294 296 299 301 304 304 305 306 309 312 313 314 315 316 315 313 311 309 308 308 308 309 310 310 310 311 310 309 308 308 309 309 308 306 305 303
288 291 293 295 296 297 297 296 296 295 295 294 294 294 294 295 295 295 296 296 297 298 299 300 300 300 301 301 301 302 303 305 307 310 312 313 313 311 309 307 307 308 309 308 305 301 297 294 294 294 294 294 296 299 301 302 303 305 306 306 306 309 314 315 313 312 311 310 309 309 309 310 310 309 308 307 306 305 305 305 305 306 305 302 300 298
289 291 294 296 298 299 299 298 297 297 296 295 295 295 296 297 297 298 298 299 300 301 302 303 303 303 303 303 304 305 306 308 310 311 313 313 314 313 311 309 309 310 310 309 307 303 299 296 295 295 296 296 297 298 298 300 302 303 301 300 301 305 311 312 312 312 312 311 310 309 308 307 306 305 305 304 304 304 304 304 303 303 303 300 297 295
287 290 294 298 300 301 300 299 298 298 297 297 297 298 298 299 299 299 300 301 302 303 304 306 307 307 306 306 306 306 307 309 310 311 313 314 314 314 313 312 311 311 310 307 305 302 301 299 297 295 295 296 296 296 297 300 302 302 300 299 301 305 308 310 312 312 310 308 308 307 305 304 304 304 305 304 305 305 305 304 302 301 300 299 298 297
287 292 296 299 301 301 300 300 300 300 300 299 300 300 300 301 301 302 302 303 305 306 308 310 310 310 309 309 308 308 309 310 311 312 314 315 316 316 314 313 312 310 308 304 301 301 301 300 297 295 296 297 296 294 294 297 299 300 300 301 300 300 300 304 309 311 309 308 307 307 306 305 305 306 307 306 306 305 305 304 301 300 300 299 298 297
290 295 298 300 301 301 301 302 302 303 302 302 302 302 302 303 304 305 306 307 308 310 312 313 312 311 310 310 310 311 311 312 313 314 315 316 316 316 314 313 312 309 305 300 297 297 299 298 296 296 297 297 295 293 293 294 296 298 300 301 300 297 296 300 306 309 308 308 308 308 308 307 307 307 306 305 304 304 303 303 303 302 302 301 300 298
295 299 302 304 304 305 306 307 307 306 305 305 305 305 305 306 307 308 310 311 312 313 313 313 313 312 310 310 311 312 313 314 314 315 316 317 316 316 315 313 312 309 305 300 297 295 294 294 295 298 300 297 294 292 292 293 295 297 299 301 301 300 300 302 304 305 305 306 307 308 308 308 307 305 303 302 302 302 302 301 301 301 302 301 300 299
303 306 309 309 310 311 312 311 311 310 309 309 308 308 309 310 311 313 314 314 315 314 314 313 312 311 309 310 311 313 315 315 316 317 317 318 318 317 317 316 314 310 306 302 299 296 293 293 296 298 299 297 294 293 292 293 294 295 298 300 301 301 301 303 303 304 304 304 305 306 308 308 305 302 300 300 301 301 301 300 300 299 300 300 300 299
310 312 313 314 314 314 313 313 312 312 311 311 311 311 312 314 315 316 317 316 316 315 314 313 312 311 309 310 312 313 314 315 317 318 318 319 319 319 319 318 317 314 310 306 302 299 297 296 296 296 295 293 292 293 295 296 295 295 296 299 300 300 299 300 302 304 304 303 303 305 307 306 303 300 299 300 300 300 300 299 299 299 299 299 299 299
311 313 314 314 314 314 314 313 313 313 312 312 313 314 315 316 318 318 318 317 317 316 315 314 313 312 311 311 312 313 313 313 315 318 318 320 322 322 321 320 318 316 313 309 305 301 299 297 296 295 293 291 290 292 296 298 298 297 297 298 298 298 297 299 302 303 303 302 303 304 304 303 300 299 299 299 299 298 298 298 298 298 298 297 297 297
308 310 312 313 314 314 314 314 314 313 313 314 315 316 317 318 318 319 318 318 317 316 316 315 314 312 311 311 313 314 314 314 315 317 319 321 323 324 323 321 318 315 313 310 307 304 302 300 299 297 295 292 291 292 295 298 299 299 298 297 296 295 295 297 299 301 301 300 301 302 302 300 299 298 298 296 295 296 296 297 297 297 296 296 296 296
305 308 310 312 314 314 314 314 314 314 315 315 316 317 318 318 319 319 319 318 318 317 317 316 314 312 311 311 313 315 315 315 316 317 319 320 322 322 322 320 318 316 313 310 308 306 304 303 302 301 300 296 293 292 293 297 299 298 296 295 294 293 293 294 296 297 298 298 298 299 299 299 299 298 296 294 294 294 295 296 296 296 296 296 295 295
305 308 310 312 313 313 313 314 314 315 315 316 317 317 318 319 319 319 319 319 319 318 318 317 315 313 310 311 313 315 315 315 315 316 318 319 320 319 318 317 315 313 311 309 307 306 304 301 300 301 301 301 298 293 291 293 295 295 294 293 293 292 291 291 293 295 296 296 297 298 298 298 298 297 295 293 292 293 293 294 295 295 296 296 295 295